Home > Weather > Schwerin > Past weeks

Flag for Germany Past Weather in Schwerin, Mecklenburg-Western Pomerania, Germany — Yesterday and Last 2 Weeks

Now
77 °F

Passing clouds.


Feels Like: 78 °F
Forecast: 62 / 81 °F
Wind: 9 mph from East

Location: Mecklenburg-Vorpommern - Parchim

Current Time: Jul 23, 2016 at 11:28:20 AM

Latest Report: Jul 23, 2016 at 10:50 AM


Visibility: N/A

Pressure: 30.09 "Hg

Humidity: 34%

Dew Point: 46 °F

Location of SchwerinLocation

Past Weather in Schwerin — Graph

°F

Schwerin Temperature Yesterday

Maximum temperature yesterday: 84 °F (at 1:20 PM)
Minimum temperature yesterday: 66 °F (at 6:20 AM)
Average temperature yesterday: 78 °F

High & Low Weather Summary for the Past Weeks

 TemperatureHumidityPressure
High86 °F (Jul 21, 5:20 PM)100% (Jul 9, 8:20 AM)30.21 "Hg (Jul 9, 8:20 AM)
Low48 °F (Jul 16, 6:20 AM)25% (Jul 22, 3:20 PM)29.71 "Hg (Jul 11, 6:20 AM)
Average68 °F68%30.00 "Hg
* Reported Jul 8 9:20 AM — Jul 23 9:50 AM, Schwerin, Weather by CustomWeather, © 2016

Note: Actual official high and low records may vary slightly from our data, if they occured in-between our weather recording intervals... More about our weather records

Advertising

Schwerin Weather History for the Previous 24 Hours

Scroll right to see more
 ConditionsComfort  
Time TempWeatherWind HumidityBarometerVisibility
9:50 AM
Sat, Jul 23
73 °FPassing clouds.7 mph50%30.09 "HgN/A
9:20 AM73 °FPassing clouds.7 mph50%30.09 "HgN/A
8:50 AM72 °FPassing clouds.5 mph53%30.09 "HgN/A
8:20 AM68 °FPassing clouds.6 mph56%30.09 "HgN/A
7:50 AM66 °FPassing clouds.5 mph64%30.09 "HgN/A
7:20 AM64 °FPassing clouds.3 mph73%30.09 "HgN/A
6:50 AM61 °FSunny.2 mph83%30.09 "Hg10 mi
6:20 AM57 °FSunny.1 mph88%30.09 "Hg10 mi
6:50 PM
Fri, Jul 22
81 °FSunny.7 mph32%30.04 "Hg10 mi
6:20 PM81 °FPassing clouds.8 mph30%30.04 "HgN/A
5:50 PM82 °FSunny.12 mph28%30.04 "Hg10 mi
5:20 PM82 °FSunny.10 mph28%30.04 "Hg10 mi
4:50 PM82 °FSunny.9 mph26%30.04 "Hg10 mi
4:20 PM82 °FPassing clouds.9 mph26%30.04 "HgN/A
3:50 PM84 °FPassing clouds.8 mph25%30.04 "HgN/A
3:20 PM84 °FPassing clouds.12 mph25%30.04 "HgN/A
2:50 PM84 °FPassing clouds.9 mph27%30.04 "HgN/A
2:20 PM84 °FPassing clouds.8 mph29%30.04 "HgN/A
1:50 PM84 °FPassing clouds.10 mph29%30.04 "HgN/A
1:20 PM84 °FPassing clouds.12 mph29%30.04 "HgN/A
12:50 PM82 °FPassing clouds.9 mph30%30.04 "HgN/A
12:20 PM82 °FSunny.13 mph28%30.04 "Hg10 mi
11:50 AM82 °FPassing clouds.9 mph28%30.04 "HgN/A
11:20 AM81 °FPassing clouds.12 mph32%30.04 "HgN/A
Weather by CustomWeather, © 2016

See weather overviewHow to use our weather pages